Location: Unnamed
(48.6007°N, 2.4808°E)
Time: 06:39:09
(UTC+01:00)

ISS - Visible Passes

Search period start: 02 December 2022 00:00
Search period end: 12 December 2022 00:00
Orbit: 415 x 420 km, 51.6° (Epoch: 01 December)

Date Brightness Start Highest point End Pass type
(mag) Time Alt. Az. Time Alt. Az. Time Alt. Az.
02 Dec -3.8 18:38:45 10° WNW 18:42:07 85° SSW 18:43:14 39° ESE visible
02 Dec -0.2 20:16:03 10° W 20:16:10 11° W 20:16:10 11° W visible
03 Dec -3.8 17:50:42 10° WNW 17:54:04 73° NNE 17:57:25 10° ESE visible
03 Dec -1.9 19:27:42 10° W 19:30:28 28° SW 19:30:28 28° SW visible
04 Dec -2.6 18:39:32 10° WNW 18:42:44 42° SSW 18:44:56 17° SSE visible
05 Dec -3.3 17:51:27 10° WNW 17:54:47 63° SSW 17:58:05 10° SE visible
05 Dec -0.7 19:29:26 10° WSW 19:31:01 13° SW 19:32:36 10° SSW visible
06 Dec -1.1 18:40:42 10° W 18:43:13 20° SW 18:45:42 10° S visible
07 Dec -1.6 17:52:24 10° W 17:55:22 29° SW 17:58:19 10° SSE visible
09 Dec -0.4 17:54:09 10° WSW 17:55:49 13° SW 17:57:30 10° SSW visible
